Flag for Italy Weather past 2 weeks in Palermo, Italy

Now
68 °F

Clear.


Feels Like: 68 °F
Forecast: 63 / 73 °F
Wind: 2 mph from West

Location: Palermo / Punta Raisi

Current Time: May 31, 2015 at 1:16:06 AM

Latest Report: May 31, 2015 at 12:50 AM


Visibility: 10 mi

Pressure: 30.04 "Hg

Humidity: 73%

Dew point: 59 °F

Location of PalermoLocation

Historic Weather in Palermo — Graph

°F

Palermo temperature yesterday

Maximum temperature yesterday: 75 °F (at 3:20 PM)
Minimum temperature yesterday: 59 °F (at 4:50 AM)
Average temperature yesterday: 68 °F

Past Weeks' High & Low Weather Summary

 TemperatureHumidityPressure
High82 °F (May 20, 2:50 PM)100% (May 17, 9:20 AM)30.09 "Hg (May 17, 9:20 AM)
Low57 °F (May 17, 5:20 AM)39% (May 20, 12:50 PM)29.77 "Hg (May 27, 2:50 AM)
Average66 °F77%29.95 "Hg
* Reported May 15 11:20 PM — May 30 11:50 PM, Palermo, Weather by CustomWeather, © 2015

Note: Actual official high and low records may vary slightly from our data, if they occured in-between our weather recording intervals... More about our weather records

Advertising

Palermo weather history for previous 24 hours

 ConditionsComfort  
Time TempWeatherWind HumidityBarometerVisibility
11:50 PM
Sat, May 30
70 °FClear.2 mph64%30.04 "Hg10 mi
10:50 PM70 °FPassing clouds.5 mph69%30.04 "HgN/A
10:20 PM70 °FClear.5 mph69%30.07 "Hg10 mi
9:50 PM70 °FClear.2 mph69%30.04 "Hg10 mi
9:20 PM70 °FSunny.5 mph69%30.04 "Hg10 mi
8:50 PM70 °FSunny.5 mph69%30.04 "Hg10 mi
8:20 PM70 °FSunny.5 mph69%30.04 "Hg10 mi
7:50 PM70 °FSunny.5 mph69%30.04 "Hg10 mi
7:20 PM70 °FSunny.7 mph64%30.04 "Hg10 mi
6:50 PM70 °FSunny.10 mph64%30.01 "Hg10 mi
6:20 PM72 °FSunny.12 mph57%30.01 "Hg10 mi
5:50 PM73 °FSunny.13 mph53%30.01 "Hg10 mi
5:20 PM72 °FSunny.15 mph57%30.01 "Hg10 mi
4:50 PM72 °FSunny.15 mph57%30.01 "Hg10 mi
4:20 PM72 °FSunny.14 mph57%30.01 "Hg10 mi
3:50 PM72 °FSunny.15 mph57%30.01 "Hg10 mi
3:20 PM75 °FSunny.16 mph39%30.04 "Hg10 mi
2:50 PM73 °FSunny.14 mph41%30.04 "Hg10 mi
2:20 PM72 °FSunny.13 mph61%30.04 "Hg10 mi
1:50 PM70 °FSunny.10 mph64%30.04 "Hg10 mi
1:20 PM72 °FPassing clouds.9 mph65%30.04 "HgN/A
12:50 PM70 °FSunny.7 mph69%30.04 "Hg10 mi
12:20 PM70 °FSunny.5 mph64%30.07 "Hg10 mi
11:50 AM70 °FSunny.5 mph69%30.07 "Hg10 mi
11:20 AM70 °FSunny.6 mph64%30.07 "Hg10 mi
10:50 AM70 °FSunny.5 mph64%30.07 "Hg10 mi
10:20 AM68 °FPassing clouds.5 mph69%30.07 "HgN/A
9:50 AM68 °FSunny.6 mph69%30.07 "Hg10 mi
9:20 AM68 °FSunny.6 mph64%30.07 "Hg10 mi
8:50 AM68 °FSunny.10 mph64%30.07 "Hg10 mi
8:20 AM68 °FSunny.8 mph56%30.04 "Hg10 mi
7:50 AM64 °FSunny.10 mph68%30.04 "Hg10 mi
7:20 AM66 °FPassing clouds.3 mph64%30.01 "HgN/A
6:50 AM66 °FSunny.10 mph56%30.01 "Hg10 mi
6:20 AM61 °FClear.10 mph72%30.01 "Hg10 mi
5:50 AM59 °FClear.3 mph77%30.01 "Hg10 mi
5:20 AM61 °FClear.1 mph72%30.01 "Hg10 mi
4:50 AM59 °FPassing clouds.3 mph77%30.01 "HgN/A
4:20 AM63 °FClear.3 mph68%30.01 "Hg10 mi
3:50 AM61 °FClear.7 mph72%30.01 "Hg10 mi
3:20 AM61 °FClear.6 mph63%30.01 "Hg10 mi
2:50 AM64 °FClear.3 mph60%30.01 "Hg10 mi
2:20 AM63 °FClear.7 mph64%30.01 "Hg10 mi
1:50 AM64 °FPassing clouds.5 mph56%30.04 "HgN/A
1:20 AM63 °FClear.6 mph59%30.04 "Hg10 mi
Weather by CustomWeather, © 2015

See weather overviewHow to use our weather pages